Change the Weather History Date:

Friday, May 24, 2013

  Actual Average Record
Temperature  
Mean Temperature 83 °F -  
Max Temperature 93 °F 81 °F 93 °F (2013)
Min Temperature 73 °F 68 °F 64 °F (2002)
Cooling Degree Days 18    
Growing Degree Days 33 (Base 50)    
Moisture  
Dew Point 60 °F    
Average Humidity 50    
Maximum Humidity 85    
Minimum Humidity 28    
Precipitation  
Precipitation 0.00 in - - ()
Sea Level Pressure  
Sea Level Pressure 30.08 in    
Wind  
Wind Speed 6 mph (North)    
Max Wind Speed 13 mph    
Max Gust Speed 20 mph    
Visibility 10 miles    
Events      
Averages and records for this station are not official NWS values.
T = Trace of Precipitation, MM = Missing Value Source: NWS Daily Summary

Daily Weather History Graph

Daily Weather History Graph

Search for Another Location

Airport or City:

Trip Planner

Search our weather history database for the weather conditions in past years. The results will help you decide how hot, cold, wet, or windy it might be!

Date:

Astronomy

May. 24, 2013 Rise Set
Actual Time 5:46 AM CDT 7:38 PM CDT
Civil Twilight 5:20 AM CDT 8:05 PM CDT
Nautical Twilight 4:47 AM CDT 8:38 PM CDT
Astronomical Twilight 4:13 AM CDT 9:12 PM CDT
Moon 7:22 PM CDT (5/24) 5:15 AM CDT (5/24)
Length of Visible Light 14h 45m
Length of Day
13h 52m
Full, 100% of the Moon is Illuminated
May 24
Full
May 24
Full
May 31
Last Quarter
Jun 8
New
Jun 16
First Quarter

Hourly Weather History & Observations

Time (CDT) Temp. Heat Index Dew Point Humidity Pressure Visibility Wind Dir Wind Speed Gust Speed Precip Events Conditions
12:53 AM 78.1 °F - 70.0 °F 76% 30.01 in 10.0 mi NW 3.5 mph - N/A   Clear
1:53 AM 77.0 °F - 70.0 °F 79% 30.01 in 10.0 mi Calm Calm - N/A   Clear
2:53 AM 77.0 °F - 70.0 °F 79% 30.02 in 10.0 mi WNW 3.5 mph - N/A   Clear
3:53 AM 75.9 °F - 70.0 °F 82% 30.03 in 10.0 mi NW 4.6 mph - N/A   Clear
4:53 AM 75.9 °F - 70.0 °F 82% 30.03 in 10.0 mi NW 4.6 mph - N/A   Clear
5:53 AM 73.9 °F - 69.1 °F 85% 30.04 in 10.0 mi NNW 4.6 mph - N/A   Clear
6:53 AM 75.9 °F - 68.0 °F 76% 30.06 in 10.0 mi North 5.8 mph - N/A   Clear
7:53 AM 79.0 °F - 63.0 °F 58% 30.09 in 10.0 mi NNE 5.8 mph - N/A   Clear
8:53 AM 82.0 °F 83.0 °F 62.1 °F 51% 30.11 in 10.0 mi North 9.2 mph - N/A   Clear
9:53 AM 84.9 °F 85.0 °F 61.0 °F 44% 30.12 in 10.0 mi NNE 8.1 mph - N/A   Clear
10:53 AM 87.1 °F 86.7 °F 60.1 °F 40% 30.12 in 10.0 mi North 9.2 mph - N/A   Clear
11:53 AM 89.1 °F 88.8 °F 60.1 °F 38% 30.11 in 10.0 mi Variable 6.9 mph - N/A   Scattered Clouds
12:53 PM 91.0 °F 90.9 °F 61.0 °F 36% 30.10 in 10.0 mi NNW 9.2 mph - N/A   Partly Cloudy
1:53 PM 91.0 °F 90.5 °F 60.1 °F 35% 30.10 in 10.0 mi North 8.1 mph - N/A   Mostly Cloudy
2:53 PM 93.0 °F 91.7 °F 57.0 °F 30% 30.09 in 10.0 mi North 12.7 mph - N/A   Partly Cloudy
3:53 PM 93.0 °F 91.1 °F 55.0 °F 28% 30.08 in 10.0 mi NNW 11.5 mph 19.6 mph N/A   Clear
4:53 PM 91.0 °F 89.2 °F 55.9 °F 30% 30.07 in 10.0 mi North 10.4 mph - N/A   Clear
5:53 PM 90.0 °F 87.7 °F 54.0 °F 29% 30.06 in 10.0 mi North 10.4 mph - N/A   Clear
6:53 PM 87.1 °F - 51.1 °F 29% 30.07 in 10.0 mi NNE 9.2 mph - N/A   Clear
7:53 PM 82.9 °F 81.8 °F 53.1 °F 36% 30.08 in 10.0 mi North 6.9 mph - N/A   Clear
8:53 PM 81.0 °F - 52.0 °F 36% 30.10 in 10.0 mi North 10.4 mph - N/A   Clear
9:53 PM 79.0 °F - 52.0 °F 39% 30.14 in 10.0 mi North 9.2 mph - N/A   Clear
10:53 PM 77.0 °F - 52.0 °F 42% 30.15 in 10.0 mi NNE 8.1 mph - N/A   Clear
11:53 PM 75.0 °F - 52.0 °F 44% 30.15 in 10.0 mi NNE 5.8 mph - N/A   Clear